Date String (YYYY-MM-DD hh:mm:ss) UTC,Instrument flags,Ambient pressure (hPa),Sample flow (lpm),Bypass flow (lpm),Sample temperature (°C),Ambient temperature (°C),ASC tube jacket temperature (°C),LED temperature (°C),Box temperature (°C),Sample RH (%),Span deviation,Mass concentration (μg/m³),Mass concentration (μg/m³),Mass concentration (μg/m³)
DateTimeUTC,F1_M11,P_M11,Q1_M11,Q2_M11,T1_M11,T2_M11,T3_M11,T4_M11,T5_M11,U1_M11,ZSPAN_M11,X2_M11,X0_M11,X1_M11
2022-03-25 01:00:00,,0825.2,5.01,0.00,29.0,28.2,00.0,38.0,30.7,08.4,0000.0,0002.59,0005.56,0001.15
2022-03-25 01:01:00,,0825.2,5.00,0.00,29.0,28.2,00.0,38.0,30.7,08.2,0000.0,0002.69,0005.87,0001.16
2022-03-25 01:02:00,,0825.2,4.99,0.00,29.0,28.2,00.0,38.0,30.7,08.2,0000.0,0002.78,0006.11,0001.17
2022-03-25 01:03:00,,0825.2,5.02,0.00,29.0,28.2,00.0,38.0,30.7,08.4,0000.0,0002.76,0005.96,0001.17
2022-03-25 01:04:00,,0825.2,5.00,0.00,29.0,28.2,00.0,38.0,30.7,08.4,0000.0,0002.80,0006.28,0001.18
2022-03-25 01:05:00,,0825.3,4.99,0.00,29.0,28.2,00.0,38.0,30.7,08.4,0000.0,0002.83,0006.35,0001.17
2022-03-25 01:06:00,,0825.3,5.02,0.00,29.0,28.2,00.0,38.0,30.7,08.4,0000.0,0002.82,0006.31,0001.19
2022-03-25 01:07:00,,0825.3,5.00,0.00,29.0,28.2,00.0,38.0,30.7,08.4,0000.0,0002.81,0006.34,0001.21
2022-03-25 01:08:00,,0825.3,4.99,0.00,29.0,28.2,00.0,38.0,30.7,08.4,0000.0,0002.85,0006.43,0001.22
2022-03-25 01:09:00,,0825.2,5.02,0.00,29.0,28.3,00.0,38.0,30.7,08.4,0000.0,0002.89,0006.53,0001.23
2022-03-25 01:10:00,,0825.2,4.99,0.00,29.0,28.3,00.0,38.0,30.7,08.4,0000.0,0002.96,0006.74,0001.23
2022-03-25 01:11:00,,0825.3,4.99,0.00,29.0,28.2,00.0,38.0,30.7,08.5,0000.0,0003.07,0007.55,0001.25
2022-03-25 01:12:00,,0825.3,5.01,0.00,29.0,28.2,00.0,38.0,30.7,08.5,0000.0,0003.10,0007.92,0001.25
2022-03-25 01:13:00,,0825.3,5.00,0.00,29.0,28.2,00.0,38.0,30.7,08.4,0000.0,0003.11,0007.91,0001.25
2022-03-25 01:14:00,,0825.3,5.00,0.00,29.0,28.2,00.0,38.0,30.7,08.5,0000.0,0003.12,0008.00,0001.26
2022-03-25 01:15:00,,0825.3,4.98,0.00,29.0,28.2,00.0,38.0,30.7,08.4,0000.0,0003.15,0008.10,0001.26
2022-03-25 01:16:00,,0825.3,5.02,0.00,29.0,28.2,00.0,38.1,30.8,08.4,0000.0,0003.17,0008.23,0001.26
2022-03-25 01:17:00,,0825.3,4.99,0.00,29.0,28.2,00.0,38.0,30.7,08.5,0000.0,0003.19,0008.33,0001.27
2022-03-25 01:18:00,,0825.3,5.00,0.00,29.0,28.2,00.0,38.1,30.7,08.4,0000.0,0003.20,0008.41,0001.26
2022-03-25 01:19:00,,0825.3,5.02,0.00,29.0,28.2,00.0,38.0,30.7,08.4,0000.0,0003.18,0008.43,0001.26
2022-03-25 01:20:00,,0825.2,4.99,0.00,29.0,28.2,00.0,38.0,30.7,08.5,0000.0,0003.13,0008.32,0001.26
2022-03-25 01:21:00,,0825.2,4.99,0.00,29.0,28.2,00.0,38.0,30.7,08.5,0000.0,0003.14,0008.32,0001.27
2022-03-25 01:22:00,,0825.3,5.01,0.00,29.0,28.2,00.0,38.0,30.7,08.5,0000.0,0003.13,0007.88,0001.28
2022-03-25 01:23:00,,0825.3,5.00,0.00,29.0,28.2,00.0,38.0,30.6,08.6,0000.0,0003.07,0007.58,0001.28
2022-03-25 01:24:00,,0825.3,5.00,0.00,29.0,28.1,00.0,38.0,30.7,08.5,0000.0,0003.04,0007.66,0001.29
2022-03-25 01:25:00,,0825.3,5.00,0.00,29.0,28.1,00.0,38.0,30.6,08.5,0000.0,0002.98,0007.49,0001.28
2022-03-25 01:26:00,,0825.3,4.99,0.00,29.0,28.1,00.0,38.0,30.6,08.5,0000.0,0002.88,0007.26,0001.27
2022-03-25 01:27:00,,0825.3,5.02,0.00,29.0,28.1,00.0,38.0,30.6,08.5,0000.0,0002.87,0007.36,0001.28
2022-03-25 01:28:00,,0825.3,4.98,0.00,29.0,28.1,00.0,38.0,30.7,08.5,0000.0,0002.92,0007.46,0001.27
2022-03-25 01:29:00,,0825.3,4.99,0.00,29.0,28.1,00.0,38.0,30.7,08.5,0000.0,0003.02,0007.62,0001.28
2022-03-25 01:30:00,,0825.3,5.02,0.00,29.0,28.1,00.0,38.0,30.7,08.5,0000.0,0003.14,0007.72,0001.30
2022-03-25 01:31:00,,0825.3,5.00,0.00,29.0,28.1,00.0,38.0,30.7,08.5,0000.0,0003.23,0008.09,0001.32
2022-03-25 01:32:00,,0825.3,5.00,0.00,29.0,28.1,00.0,38.0,30.7,08.4,0000.0,0003.26,0008.31,0001.32
2022-03-25 01:33:00,,0825.3,5.01,0.00,29.0,28.1,00.0,38.0,30.7,08.4,0000.0,0003.27,0008.24,0001.31
2022-03-25 01:34:00,,0825.3,5.01,0.00,29.0,28.2,00.0,38.0,30.7,08.5,0000.0,0003.32,0008.44,0001.32
2022-03-25 01:35:00,,0825.3,5.00,0.00,29.0,28.2,00.0,38.0,30.7,08.5,0000.0,0003.32,0008.56,0001.32
2022-03-25 01:36:00,,0825.3,5.00,0.00,29.0,28.2,00.0,38.0,30.7,08.6,0000.0,0003.34,0008.65,0001.32
2022-03-25 01:37:00,,0825.3,5.02,0.00,29.0,28.1,00.0,38.0,30.7,08.7,0000.0,0003.37,0008.78,0001.31
2022-03-25 01:38:00,,0825.3,4.99,0.00,29.0,28.1,00.0,38.0,30.7,08.6,0000.0,0003.38,0008.60,0001.30
2022-03-25 01:39:00,,0825.3,5.00,0.00,29.0,28.1,00.0,38.0,30.7,08.7,0000.0,0003.33,0008.40,0001.30
2022-03-25 01:40:00,,0825.3,5.02,0.00,29.0,28.1,00.0,38.0,30.6,08.7,0000.0,0003.27,0008.13,0001.31
2022-03-25 01:41:00,,0825.3,4.99,0.00,29.0,28.0,00.0,38.0,30.6,08.8,0000.0,0003.23,0008.06,0001.32
2022-03-25 01:42:00,,0825.4,5.01,0.00,29.0,28.0,00.0,38.0,30.6,08.7,0000.0,0003.22,0007.97,0001.33
2022-03-25 01:43:00,,0825.4,4.99,0.00,29.0,28.0,00.0,38.0,30.6,08.7,0000.0,0003.22,0007.90,0001.33
2022-03-25 01:44:00,,0825.4,4.99,0.00,29.0,28.0,00.0,38.0,30.7,08.7,0000.0,0003.25,0007.96,0001.35
2022-03-25 01:45:00,,0825.4,5.02,0.00,29.0,28.1,00.0,38.0,30.7,08.6,0000.0,0003.22,0007.83,0001.35
2022-03-25 01:46:00,,0825.4,4.99,0.00,29.0,28.1,00.0,38.0,30.7,08.6,0000.0,0003.23,0007.67,0001.35
2022-03-25 01:47:00,,0825.4,5.00,0.00,29.0,28.1,00.0,38.0,30.7,08.6,0000.0,0003.24,0007.75,0001.37
2022-03-25 01:48:00,,0825.4,5.01,0.00,29.0,28.1,00.0,38.0,30.7,08.6,0000.0,0003.28,0007.83,0001.40
2022-03-25 01:49:00,,0825.4,5.01,0.00,29.0,28.2,00.0,38.0,30.7,08.6,0000.0,0003.30,0007.90,0001.42
2022-03-25 01:50:00,,0825.4,4.99,0.00,29.0,28.2,00.0,38.0,30.7,08.6,0000.0,0003.32,0007.94,0001.43
2022-03-25 01:51:00,,0825.4,5.01,0.00,29.0,28.2,00.0,38.0,30.7,08.5,0000.0,0003.40,0008.14,0001.44
2022-03-25 01:52:00,,0825.4,4.99,0.00,29.0,28.2,00.0,38.0,30.8,08.6,0000.0,0003.44,0008.29,0001.44
2022-03-25 01:53:00,,0825.4,5.00,0.00,29.0,28.2,00.0,38.0,30.7,08.6,0000.0,0003.38,0008.14,0001.44
2022-03-25 01:54:00,,0825.4,5.01,0.00,29.0,28.2,00.0,38.0,30.7,08.7,0000.0,0003.36,0008.07,0001.44
2022-03-25 01:55:00,,0825.4,4.99,0.00,29.0,28.2,00.0,38.0,30.7,08.7,0000.0,0003.33,0008.03,0001.44
2022-03-25 01:56:00,,0825.4,5.00,0.00,29.0,28.2,00.0,38.0,30.8,08.7,0000.0,0003.35,0008.10,0001.44
2022-03-25 01:57:00,,0825.4,5.01,0.00,29.0,28.2,00.0,38.0,30.7,08.6,0000.0,0003.36,0008.17,0001.44
2022-03-25 01:58:00,,0825.4,5.00,0.00,29.0,28.2,00.0,38.0,30.7,08.6,0000.0,0003.40,0008.10,0001.43
2022-03-25 01:59:00,,0825.4,4.99,0.00,29.0,28.2,00.0,38.0,30.7,08.6,0000.0,0003.35,0007.94,0001.42
